TIROS 10

Satellite information

Favourite Embed

Satellite Type and Status

PAYLOADIN ORBIT

Key statistics

Satellite TIROS 10 at a glance.

Uptime

21860

Days in orbit

Revolutions

≈ 14.4

Per day

Orbit

SSO

Sun Synchronous Orbit

Inclination

98.5

Latest

Satellite identification and parameters

Extended collection of information and parameters for TIROS 10.

Object identification

Identified? True

Debris? False

Object name: TIROS 10

International designator: 1965-051A

Object number (NORAD): 1430

Object ID (CCSDS): 1430

Country: UNITED STATES OF AMERICA (US)

Current information (Y/N): Y

RCS size: MEDIUM

Orbital parameters

Period: 99.903 minutes

Inclination: 98.4635 deg

SMA: 7132.034 km

Apoapsis: 793.0 km

Periapsis: 714.797 km

RAAN: 244.9476 deg

Eccentricy: 0.0054825

Argument of periapsis: 215.4101 deg

Mean anomaly: 144.3443 deg

Mean motion: 14.41393932 rev/day

Mean motion (dot): 0.00000284 rev/day2

B* drag term: 0.00009963 1/REarth

Two-line elements (TLE)

Creation date: May 8, 2025, 3:01 a.m.

Reference frame: TEME

Reference center: EARTH

Epoch: May 7, 2025, 7:37 p.m. UTC

TLE line 0: 0 TIROS 10

TLE line 1: 1 01430U 65051A 25127.81778034 .00000284 00000-0 99630-4 0 9995

TLE line 2: 2 01430 98.4635 244.9476 0054825 215.4101 144.3443 14.41393932137518

Live tracking on map

Real-time ground track for satellite TIROS 10.

In-orbit conjunctions

A list of the most updated potential collisions computed for object TIROS 10.

Target Orbit TCA Probability of collision Miss distance Type
DMSP 5D-2 F13 DEB SSO 2025-03-03 04:49:35 0.0001000835 649.0 (m) DEBRIS
CZ-6A DEB LEO 2025-02-21 01:26:33 0.0004848053 451.0 (m) DEBRIS
CZ-6A DEB LEO 2025-02-16 16:26:31 0.02918008 28.0 (m) DEBRIS
FENGYUN 1C DEB SSO 2025-02-16 03:12:02 0.000195359 443.0 (m) DEBRIS

Associated space launch

NASA's TIROS (Television & Infra-Red Observation Satellite) program was the first experimental weathersatellite program.

TIROS 10 was lifted into orbit during the mission ‘Thor Delta C | Tiros 10’, on board a Thor Delta C space rocket.

The launch took place on July 2, 1965, 4:07 a.m. from Space Launch Complex 17B.

For more information about the launch, click the button.

Launch to space Thor Delta C | Tiros 10
Thor Delta C | Tiros 10

Agency: N/A

Status: Launch Successful

Launch date: July 2, 1965, 4:07 a.m. UTC

Rocket: Thor Delta C

Launch pad: Space Launch Complex 17B

Location: Cape Canaveral SFS, FL, USA

...

Latest news about this satellite

There are no fresh news available about this satellite. Check back as we update our databases every day.


Newsletter sign-up

Weekly statistics, charts and insights to help you stay on top of the space industry.